Voltar ao catálogo

DELTA 1 DEB

AtivoSSO
NORAD 12285·DEBRIS·🇺🇸 United States

Lançado Mar 5, 1978 de Vandenberg Space Force Base

Loading…

Próximas Passagens (próximas 24 horas)

TLE

AtualizadoSource: Space-Track

Época: Sep 14, 2026, 07:09 UTC

1 12285U 78026ED  26257.29859653  .00000396  00000-0  23528-3 0  9991
2 12285  99.0669 270.0889 0051683  84.1109 276.5950 14.12588347176268

Acompanhe DELTA 1 DEB em tempo real com AllMySat

Download on the App Store